QPF
0.05 0.02 0.01 0.00 0.00 0.00 0.00 0.00 0.00 0.00 0.00 0.00 0.00 0.00 0.01 0.00 0.00 0.01 0.07 0.04 0.05 0.03 0.02 0.02 0.01 0.00 0.00 0.00 0.00 0.00 0.00 0.00 0.00
0.01 0.01 0.01 0.00 0.00 0.00 0.00 0.00 0.00 0.00 0.00 0.00 0.00 0.01 0.00 0.00 0.01 0.01 0.02 0.01 0.04 0.04 0.01 0.00 0.00 0.00 0.00 0.00 0.00 0.00 0.00 0.00 0.00
0.01 0.00 0.00 0.00 0.00 0.00 0.00 0.00 0.00 0.00 0.00 0.00 0.02 0.02 0.00 0.00 0.00 0.00 0.00 0.04 0.02 0.02 0.00 0.00 0.00 0.00 0.00 0.00 0.00 0.00 0.01 0.01 0.00
0.01 0.00 0.00 0.00 0.00 0.00 0.00 0.00 0.00 0.00 0.01 0.01 0.02 0.01 0.00 0.00 0.00 0.00 0.00 0.02 0.02 0.01 0.01 0.00 0.00 0.00 0.00 0.01 0.01 0.01 0.01 0.00 0.00
0.01 0.00 0.00 0.01 0.00 0.00 0.02 0.03 0.01 0.01 0.02 0.02 0.01 0.00 0.00 0.00 0.00 0.00 0.00 0.00 0.01 0.01 0.01 0.00 0.00 0.00 0.01 0.01 0.01 0.00 0.00 0.00 0.00
0.00 0.00 0.00 0.00 0.00 0.01 0.03 0.02 0.01 0.01 0.02 0.01 0.00 0.00 0.00 0.00 0.00 0.00 0.00 0.01 0.01 0.01 0.00 0.00 0.00 0.00 0.00 0.00 0.00 0.00 0.00 0.00 0.00
0.00 0.00 0.00 0.00 0.01 0.02 0.01 0.00 0.00 0.00 0.01 0.00 0.00 0.00 0.00 0.00 0.00 0.01 0.01 0.01 0.01 0.01 0.01 0.01 0.00 0.00 0.00 0.00 0.00 0.00 0.00 0.00 0.00
0.00 0.00 0.00 0.01 0.01 0.02 0.00 0.00 0.00 0.00 0.00 0.00 0.00 0.00 0.00 0.00 0.00 0.01 0.01 0.01 0.01 0.00 0.01 0.00 0.00 0.00 0.00 0.00 0.00 0.00 0.00 0.00 0.00
0.00 0.00 0.01 0.01 0.01 0.00 0.00 0.00 0.00 0.00 0.00 0.00 0.00 0.00 0.00 0.00 0.00 0.01 0.01 0.00 0.00 0.00 0.00 0.01 0.00 0.00 0.00 0.00 0.00 0.00 0.00 0.00 0.00
0.00 0.00 0.00 0.00 0.01 0.00 0.00 0.00 0.00 0.00 0.00 0.00 0.00 0.00 0.00 0.00 0.00 0.00 0.01 0.00 0.01 0.01 0.01 0.01 0.00 0.00 0.00 0.00 0.00 0.00 0.00 0.00 0.00
0.00 0.00 0.00 0.00 0.01 0.01 0.00 0.00 0.00 0.00 0.00 0.00 0.00 0.00 0.00 0.00 0.00 0.00 0.00 0.01 0.01 0.02 0.01 0.01 0.00 0.00 0.01 0.00 0.00 0.00 0.00 0.00 0.00
0.00 0.00 0.00 0.00 0.00 0.01 0.00 0.00 0.00 0.00 0.00 0.00 0.00 0.00 0.00 0.00 0.00 0.00 0.00 0.01 0.01 0.02 0.01 0.00 0.00 0.01 0.00 0.00 0.00 0.00 0.00 0.00 0.00
0.00 0.00 0.00 0.00 0.00 0.00 0.00 0.00 0.00 0.00 0.00 0.00 0.00 0.00 0.00 0.00 0.00 0.00 0.00 0.00 0.01 0.01 0.00 0.00 0.01 0.00 0.00 0.00 0.00 0.00 0.00 0.00 0.00
0.00 0.00 0.00 0.00 0.00 0.00 0.00 0.00 0.00 0.00 0.00 0.00 0.00 0.00 0.00 0.00 0.00 0.00 0.00 0.00 0.00 0.00 0.00 0.00 0.00 0.00 0.00 0.00 0.00 0.00 0.00 0.00 0.00
0.00 0.00 0.00 0.00 0.00 0.00 0.00 0.00 0.00 0.00 0.00 0.00 0.00 0.00 0.00 0.00 0.00 0.00 0.00 0.00 0.00 0.00 0.00 0.00 0.00 0.00 0.00 0.00 0.00 0.00 0.00 0.00 0.00
0.00 0.00 0.00 0.00 0.00 0.00 0.00 0.00 0.00 0.00 0.00 0.00 0.00 0.00 0.00 0.00 0.00 0.00 0.00 0.00 0.01 0.00 0.00 0.00 0.00 0.00 0.00 0.00 0.00 0.00 0.00 0.00 0.00
0.00 0.00 0.00 0.00 0.00 0.00 0.00 0.00 0.00 0.00 0.00 0.00 0.00 0.00 0.00 0.00 0.00 0.00 0.00 0.00 0.00 0.00 0.00 0.00 0.00 0.00 0.00 0.00 0.00 0.00 0.00 0.00 0.00
0.00 0.00 0.00 0.00 0.00 0.00 0.00 0.00 0.00 0.00 0.00 0.00 0.00 0.00 0.00 0.00 0.00 0.00 0.00 0.00 0.00 0.00 0.00 0.00 0.00 0.00 0.00 0.00 0.00 0.00 0.00 0.00 0.00
0.00 0.00 0.00 0.00 0.00 0.00 0.00 0.00 0.00 0.00 0.00 0.00 0.00 0.00 0.00 0.00 0.00 0.00 0.00 0.00 0.00 0.00 0.00 0.00 0.00 0.00 0.00 0.00 0.00 0.00 0.00 0.00 0.00
0.00 0.00 0.00 0.00 0.00 0.00 0.00 0.00 0.00 0.00 0.00 0.00 0.00 0.00 0.00 0.00 0.00 0.00 0.00 0.00 0.00 0.00 0.00 0.00 0.00 0.00 0.00 0.00 0.00 0.00 0.00 0.00 0.00
MSLP
1018.21 1018.59 1018.97 1019.39 1019.76 1020.05 1020.27 1020.46 1020.61 1020.72 1020.78 1020.85 1020.96 1021.11 1021.33 1021.54 1021.77 1022.06 1021.94 1022.12 1022.14 1022.42 1022.74 1022.93 1023.20 1023.51 1023.48 1023.53 1023.74 1023.82 1023.97 1024.06 1024.11
1018.54 1018.86 1019.23 1019.65 1019.99 1020.27 1020.51 1020.72 1020.86 1020.94 1021.03 1021.11 1021.23 1021.44 1021.66 1021.90 1022.27 1022.43 1022.41 1022.41 1022.53 1022.68 1023.07 1023.39 1023.73 1023.81 1023.95 1024.18 1024.27 1024.31 1024.35 1024.56 1024.65
1018.67 1019.06 1019.39 1019.79 1020.11 1020.37 1020.66 1020.91 1021.07 1021.14 1021.20 1021.31 1021.34 1021.63 1021.93 1022.09 1022.47 1022.65 1022.79 1022.86 1022.88 1023.14 1023.46 1023.84 1024.04 1024.26 1024.39 1024.66 1024.63 1024.77 1024.71 1024.99 1024.92
1018.74 1019.15 1019.46 1019.80 1020.13 1020.43 1020.81 1021.03 1021.25 1021.35 1021.48 1021.62 1021.73 1021.98 1022.16 1022.32 1022.63 1022.97 1023.36 1023.18 1023.31 1023.66 1023.93 1024.17 1024.37 1024.62 1024.73 1024.90 1025.02 1025.16 1025.25 1025.37 1025.42
1018.92 1019.27 1019.56 1019.86 1020.13 1020.60 1020.95 1021.10 1021.34 1021.51 1021.74 1022.00 1022.30 1022.44 1022.64 1022.75 1023.08 1023.30 1023.56 1023.58 1023.76 1024.01 1024.27 1024.52 1024.76 1024.94 1025.14 1025.37 1025.45 1025.55 1025.55 1025.72 1025.79
1019.17 1019.45 1019.72 1019.94 1020.19 1020.70 1021.02 1021.16 1021.52 1021.67 1021.99 1022.28 1022.63 1022.78 1022.96 1023.18 1023.48 1023.67 1023.83 1024.03 1024.13 1024.39 1024.63 1024.81 1025.12 1025.31 1025.47 1025.68 1025.83 1025.94 1026.12 1026.15 1026.34
1019.21 1019.50 1019.77 1020.08 1020.43 1020.85 1021.00 1021.22 1021.68 1022.05 1022.34 1022.56 1022.78 1022.96 1023.20 1023.46 1023.67 1023.79 1023.88 1024.21 1024.48 1024.70 1024.94 1025.10 1025.34 1025.54 1025.78 1026.01 1026.16 1026.31 1026.49 1026.66 1026.82
1019.25 1019.61 1020.00 1020.27 1020.65 1021.11 1021.35 1021.52 1022.06 1022.35 1022.44 1022.62 1022.76 1023.07 1023.24 1023.47 1023.83 1023.94 1024.12 1024.32 1024.63 1025.00 1025.14 1025.44 1025.59 1025.76 1025.96 1026.20 1026.35 1026.62 1026.86 1027.05 1027.18
1019.48 1019.86 1020.14 1020.41 1020.91 1021.34 1021.56 1021.67 1022.11 1022.30 1022.41 1022.59 1022.87 1023.12 1023.34 1023.56 1023.98 1024.28 1024.27 1024.44 1024.79 1025.15 1025.49 1025.64 1025.90 1026.09 1026.34 1026.43 1026.66 1026.93 1027.21 1027.35 1027.47
1019.73 1020.05 1020.25 1020.63 1020.97 1021.38 1021.55 1021.78 1022.06 1022.30 1022.40 1022.68 1022.86 1023.12 1023.41 1023.71 1024.13 1024.45 1024.48 1024.62 1024.93 1025.11 1025.43 1025.65 1025.87 1026.27 1026.48 1026.76 1027.05 1027.30 1027.48 1027.62 1027.69
1019.85 1020.22 1020.48 1020.77 1020.90 1021.19 1021.34 1021.80 1021.93 1022.37 1022.63 1022.87 1023.01 1023.19 1023.60 1023.94 1024.22 1024.58 1024.76 1024.86 1024.94 1025.09 1025.38 1025.77 1026.05 1026.29 1026.65 1026.92 1027.24 1027.43 1027.55 1027.69 1027.82
1019.83 1020.27 1020.49 1020.70 1020.77 1021.12 1021.50 1021.70 1021.90 1022.42 1022.71 1022.90 1023.21 1023.46 1023.86 1024.17 1024.40 1024.46 1024.92 1025.10 1025.18 1025.22 1025.42 1025.80 1026.11 1026.34 1026.70 1027.06 1027.38 1027.56 1027.69 1027.79 1027.81
1019.65 1020.21 1020.56 1020.68 1020.88 1021.09 1021.48 1021.67 1022.00 1022.55 1022.92 1023.34 1023.77 1023.82 1024.02 1024.33 1024.46 1024.69 1024.92 1025.23 1025.25 1025.42 1025.48 1025.78 1026.16 1026.48 1026.77 1027.11 1027.39 1027.65 1027.81 1027.91 1027.98
1019.54 1019.94 1020.26 1020.62 1020.90 1021.04 1021.24 1021.68 1021.88 1022.61 1023.18 1023.49 1023.91 1024.32 1024.33 1024.30 1024.14 1024.64 1024.92 1025.15 1025.40 1025.55 1025.64 1025.75 1026.05 1026.50 1026.89 1027.20 1027.40 1027.58 1027.78 1027.91 1028.01
1019.62 1019.80 1020.12 1020.54 1020.92 1021.21 1021.37 1021.81 1022.00 1022.53 1022.99 1023.67 1024.12 1024.30 1024.59 1024.44 1024.18 1024.19 1024.51 1024.86 1025.21 1025.37 1025.57 1025.91 1026.09 1026.38 1026.68 1027.10 1027.28 1027.44 1027.71 1027.82 1027.95
1019.74 1020.20 1020.18 1020.43 1020.84 1020.95 1021.38 1021.64 1022.14 1022.79 1022.95 1023.91 1024.67 1024.68 1024.54 1024.61 1024.50 1024.38 1024.35 1024.52 1024.89 1025.17 1025.39 1025.62 1025.95 1026.34 1026.42 1026.74 1027.03 1027.22 1027.48 1027.75 1027.91
1019.75 1020.19 1020.57 1020.71 1021.03 1021.22 1021.54 1021.90 1022.34 1022.70 1022.90 1023.82 1024.75 1025.24 1025.06 1024.59 1024.51 1024.52 1024.40 1024.26 1024.59 1024.91 1025.22 1025.47 1025.57 1025.99 1026.32 1026.46 1026.61 1026.91 1027.16 1027.34 1027.57
1019.85 1020.09 1020.43 1020.74 1020.95 1021.34 1021.62 1021.89 1022.12 1022.68 1023.24 1023.14 1023.98 1025.27 1025.07 1024.82 1024.52 1024.36 1024.30 1024.41 1024.35 1024.55 1024.83 1025.14 1025.50 1025.51 1025.75 1026.04 1026.33 1026.57 1026.92 1027.05 1027.27
1019.85 1020.05 1020.38 1020.62 1020.94 1021.19 1021.32 1021.58 1022.01 1022.23 1022.93 1023.53 1023.28 1023.60 1024.02 1024.57 1025.00 1024.52 1024.27 1024.27 1024.33 1024.36 1024.51 1024.77 1025.02 1025.26 1025.61 1025.74 1025.85 1026.13 1026.53 1026.77 1026.88
1019.90 1020.09 1020.40 1020.71 1020.84 1020.87 1021.12 1021.32 1021.62 1021.88 1022.35 1022.71 1023.11 1023.45 1023.68 1023.82 1024.23 1024.52 1024.31 1024.38 1024.02 1023.98 1024.12 1024.23 1024.63 1024.86 1025.22 1025.50 1025.61 1025.71 1026.04 1026.29 1026.47
Thickness
5709 5707 5705 5703 5702 5700 5699 5698 5698 5698 5697 5697 5696 5696 5695 5695 5693 5691 5690 5689 5688 5686 5684 5683 5681 5679 5680 5680 5678 5678 5677 5676 5675
5704 5703 5702 5700 5698 5697 5696 5695 5695 5695 5695 5695 5693 5693 5692 5690 5688 5687 5687 5686 5684 5683 5680 5679 5676 5676 5675 5674 5674 5674 5673 5672 5672
5701 5700 5698 5697 5695 5694 5693 5692 5692 5692 5692 5692 5692 5690 5688 5687 5685 5684 5683 5682 5681 5679 5677 5675 5673 5672 5671 5670 5670 5669 5670 5669 5670
5698 5697 5696 5694 5693 5692 5689 5689 5688 5688 5688 5688 5688 5686 5685 5685 5682 5680 5679 5679 5678 5675 5673 5671 5670 5669 5668 5667 5667 5666 5666 5665 5665
5694 5694 5692 5691 5691 5687 5685 5686 5685 5685 5685 5684 5682 5682 5680 5680 5678 5676 5675 5675 5673 5671 5669 5667 5666 5665 5663 5662 5662 5662 5662 5661 5661
5690 5690 5689 5688 5687 5684 5682 5682 5681 5682 5681 5679 5678 5677 5676 5675 5673 5671 5671 5669 5669 5667 5666 5664 5662 5661 5659 5658 5657 5657 5656 5656 5655
5686 5685 5685 5684 5683 5680 5680 5680 5678 5677 5677 5675 5674 5673 5672 5671 5670 5669 5668 5666 5664 5663 5662 5661 5659 5658 5656 5654 5653 5652 5652 5650 5649
5681 5681 5681 5680 5678 5676 5675 5675 5673 5672 5673 5672 5672 5671 5670 5669 5667 5665 5664 5663 5661 5659 5658 5656 5655 5654 5653 5652 5651 5650 5648 5646 5644
5675 5675 5676 5676 5674 5672 5671 5671 5669 5669 5669 5669 5668 5666 5666 5665 5663 5660 5660 5660 5657 5655 5653 5652 5650 5649 5649 5648 5647 5645 5643 5641 5640
5668 5669 5670 5671 5669 5667 5667 5667 5666 5665 5665 5665 5665 5664 5662 5659 5659 5657 5657 5656 5654 5653 5651 5649 5648 5645 5645 5643 5641 5639 5637 5635 5635
5661 5662 5663 5664 5664 5663 5663 5662 5662 5660 5660 5659 5660 5661 5657 5655 5655 5652 5651 5651 5651 5650 5649 5645 5644 5642 5640 5639 5636 5634 5633 5631 5629
5655 5655 5657 5658 5659 5659 5658 5658 5659 5656 5655 5654 5654 5655 5652 5650 5649 5650 5647 5645 5645 5646 5645 5642 5640 5639 5636 5633 5631 5629 5628 5626 5625
5650 5649 5650 5651 5652 5653 5653 5653 5653 5650 5649 5647 5645 5647 5646 5644 5644 5643 5643 5642 5641 5639 5639 5638 5635 5633 5631 5628 5626 5623 5621 5620 5619
5644 5644 5645 5645 5646 5647 5647 5647 5648 5643 5640 5640 5638 5637 5639 5639 5640 5638 5638 5637 5636 5634 5632 5633 5630 5627 5624 5621 5620 5619 5617 5615 5613
5636 5638 5639 5640 5639 5639 5639 5639 5640 5637 5636 5633 5630 5630 5630 5633 5635 5635 5633 5632 5631 5630 5628 5625 5625 5622 5619 5616 5614 5613 5611 5609 5606
5626 5628 5631 5632 5632 5633 5632 5632 5631 5628 5629 5623 5618 5619 5622 5624 5626 5627 5628 5628 5626 5625 5623 5622 5620 5616 5615 5612 5610 5608 5605 5601 5598
5616 5616 5618 5620 5621 5621 5622 5623 5622 5621 5622 5615 5606 5606 5609 5616 5618 5619 5620 5622 5621 5620 5618 5616 5616 5612 5609 5608 5605 5602 5598 5595 5591
5608 5609 5610 5610 5612 5612 5612 5613 5615 5612 5610 5613 5605 5593 5598 5601 5607 5611 5613 5613 5615 5613 5612 5610 5608 5609 5606 5603 5598 5594 5590 5587 5584
5597 5599 5600 5601 5602 5603 5604 5604 5605 5606 5603 5600 5603 5602 5600 5595 5595 5600 5604 5605 5606 5607 5606 5603 5601 5600 5598 5596 5593 5589 5584 5580 5576
5587 5589 5589 5589 5592 5595 5596 5597 5597 5598 5595 5594 5592 5591 5593 5594 5592 5590 5593 5593 5597 5598 5598 5597 5595 5593 5590 5587 5584 5581 5576 5571 5568